Regional Weather Roundup
Issued by NWS Spokane, WA

Home | Current Version | Previous Version | Text Only | Print | Product List | Glossary On
Versions: 1 2 3 4 5 6 7 8 9 10 11 12 13 14 15 16 17 18 19 20 21 22 23 24 25 26 27 28 29 30 31 32 33 34 35 36 37 38 39 40 41 42 43 44 45 46 47 48 49 50
198
NZUS01 KOTX 291225
RWROTX

Eastern Washington/Northern Idaho Roundup
National Weather Service, Spokane WA
500 AM PDT MON MAY 29 2017

Note: "fair" indicated few or no clouds below 12,000 feet with no
significant weather and/or obstructions to visibility.

...Northeast Washington and Northern Idaho Panhandle...

CITY           SKY/WX    TMP DP  RH WIND       PRES   REMARKS
Spokane Intl   CLEAR     60  48  64 NE5       30.08S
Spokane Downto CLEAR     54  50  86 CALM      30.09S
Coeur d Alene  CLEAR     54  47  77 E6        30.10S
Deer Park      CLEAR     49  45  86 MISG      30.09S
Sandpoint      CLEAR     46  45  93 W5        30.12S
Bonners Ferry  FAIR      50  45  81 CALM      30.14S

...Southeast Washington and southern Idaho Panhandle...

CITY           SKY/WX    TMP DP  RH WIND       PRES   REMARKS
Walla Walla    CLEAR     59  46  62 E8        30.00F
Pullman/Moscow CLEAR     55  44  66 CALM      30.09F
Lewiston       CLEAR     59  47  64 E3        30.05S
Lowell           N/A     49  45  86 CALM      30.15S
Grangeville    FAIR      52  43  71 CALM      30.12S

...Columbia Basin...

CITY           SKY/WX    TMP DP  RH WIND       PRES   REMARKS
Ephrata        CLEAR     58  45  62 NW9       30.02S
Moses Lake     CLEAR     56  48  74 NE8       30.02F
Pasco          CLEAR     51  50  96 CALM      30.00S
Richland       SUNNY     55  52  88 CALM      30.00S
Hermiston      CLEAR     52  49  89 SE5       29.99S
Pendleton      CLEAR     53  45  74 SE8       30.01S

...East Slopes Cascades...

CITY           SKY/WX    TMP DP  RH WIND       PRES   REMARKS
The Dalles     CLEAR     63  55  75 NW6       29.99S
Yakima         CLEAR     59  48  67 W6        30.03S
Ellensburg     CLEAR     53  46  77 E5        30.06S
Stampede Pass  CLEAR     60  42  51 CALM      30.15S
Wenatchee      CLEAR     61  46  57 W12       30.05S
Omak           CLEAR     51  45  79 N5        30.07R
Chelan           N/A     61  46  59 MISG        N/A
Sunnyside      SUNNY     52  48  84 CALM      30.01S

...Southern British Columbia...

CITY           SKY/WX    TMP DP  RH WIND       PRES   REMARKS
Penticton      CLEAR     54  48  82 CALM      30.06S
Cranbrook      PTCLDY    52  37  58 W7        30.18S
Osoyoos          N/A     54  50  87 CALM        N/A
Creston          N/A     57  43  58 N3          N/A

...Western Montana...

CITY           SKY/WX    TMP DP  RH WIND       PRES   REMARKS
Kalispell      SUNNY     50  44  80 N3        30.17S
Missoula       MOCLDY    50  43  77 SE6       30.20S

...Neighboring Cities...

CITY           SKY/WX    TMP DP  RH WIND       PRES   REMARKS
Seattle        CLOUDY    52  50  93 SW9       30.09R
Portland       CLOUDY    55  51  86 NW9       30.08S
Boise          CLEAR     58  42  55 SE8       30.09S
Great Falls    CLOUDY    44  41  89 SW9       30.24F
Calgary        PTCLDY    48  34  57 S5        30.22F



USA.gov is the U.S. government's official web portal to all federal, state and local government web resources and services.